Terminal Aerodrome Forecast
Issued by NWS

Home | Current Version | Previous Version | Text Only | Print | Product List | Glossary Off
Versions: 1 2 3 4 5 6 7 8 9 10 11 12 13 14 15 16 17

562
FTUS43 KBIS 201537 AAB
TAFJMS
TAF AMD
KJMS 201537Z 2016/2112 33013KT 1SM -SN BKN020 OVC035
      TEMPO 2016/2017 2SM -SN SCT020 OVC035
     FM201800 32014G20KT P6SM BKN035
     FM202200 29010KT P6SM SCT060
     FM211000 25007KT P6SM SKC=

USA.gov is the U.S. government's official web portal to all federal, state and local government web resources and services.